Location: Monrovia
(34.7865°N, 86.7139°W)
Time: 21:59:55
(UTC+00:00)

CZ-4B R/B - Pass Details

Date: 14 July 2020
Orbit: 390 x 465 km, 97.6° (Epoch: 08 August)

Event Time Altitude Azimuth Distance (km) Brightness Sun altitude
Rises 09:52:07 0° 157° (SSE) 2,472 5.0 -10.0°
Reaches altitude 10° 09:54:10 10° 153° (SSE) 1,607 4.1 -9.7°
Maximum altitude 09:57:33 53° 76° (ENE) 581 2.4 -9.1°
Drops below altitude 10° 10:00:57 10° 359° (N) 1,624 4.7 -8.5°
Sets 10:03:02 0° 354° (N) 2,502 5.6 -8.2°
